Location: Caltech
(34.1382°N, 118.1253°W)
Time: 01:51:51
(UTC-07:00)

Hamsat - Visible Passes

Search period start: 29 August 2016 00:00
Search period end: 08 September 2016 00:00
Orbit: 586 x 620 km, 97.6° (Epoch: 28 August)

Date Brightness Start Highest point End Pass type
(mag) Time Alt. Az. Time Alt. Az. Time Alt. Az.
29 Aug ? 05:07:35 10° NNE 05:11:49 59° E 05:16:03 10° S visible
30 Aug ? 05:19:32 10° NNE 05:23:51 84° ESE 05:28:09 10° S visible
31 Aug ? 05:31:34 10° N 05:35:50 69° WNW 05:40:06 10° SSW visible
01 Sep ? 04:10:27 10° ENE 04:11:49 11° E 04:13:11 10° ESE visible
01 Sep ? 05:43:41 10° N 05:47:49 48° WNW 05:51:57 10° SSW visible
02 Sep ? 04:21:16 10° NE 04:23:55 16° E 04:26:36 10° SE visible
02 Sep ? 05:55:52 10° N 05:59:46 34° WNW 06:03:40 10° SW visible
03 Sep ? 04:32:38 10° NE 04:36:01 22° E 04:39:23 10° SSE visible
04 Sep ? 04:44:16 10° NE 04:48:05 30° E 04:51:54 10° SSE visible
05 Sep ? 04:56:01 10° NNE 05:00:08 43° E 05:04:14 10° S visible
06 Sep ? 05:07:53 10° NNE 05:12:09 61° E 05:16:25 10° S visible
07 Sep ? 05:19:50 10° NNE 05:24:10 87° ESE 05:28:29 10° SSW visible
